Wind_Speed
16 11 12 12 12 14 15 17 17 15 12 12 13 13 11 9 11 12 14 19 20 14 13 18 19 12 13 12 13 14 14 13 15 17 18 14 12 12 14 13 12 14 13 12 13 11 10 9 8 7 6 6 5 3 3 2 1 1 0 1 2 1 1 3 5 6 6 6 7 8 8 10 11 10 9 9 9 9 11 14 13 11 12 11 12 13
15 11 12 15 15 16 17 17 18 17 12 10 11 12 11 9 12 12 11 17 20 14 12 17 19 13 14 13 12 13 12 11 13 15 16 13 13 12 14 14 12 13 12 12 13 11 10 9 8 7 6 6 4 3 3 2 1 1 1 1 2 2 1 2 3 3 3 5 6 6 6 7 8 8 9 8 7 8 10 13 12 11 13 12 13 14
12 12 15 17 16 16 16 16 17 16 11 10 9 10 10 9 11 10 11 14 16 11 11 16 17 11 12 11 12 13 13 12 12 13 17 17 14 12 15 14 12 13 11 11 11 11 10 9 8 7 6 6 5 4 3 2 2 2 2 2 2 2 0 1 3 2 2 5 6 6 7 8 7 7 9 9 9 10 11 12 11 11 13 13 13 14
10 12 16 17 16 17 16 16 18 14 10 10 9 9 9 11 13 10 12 14 15 11 11 16 14 9 10 9 10 12 11 11 11 10 13 17 16 14 15 14 13 13 11 10 10 10 10 9 9 8 7 6 6 6 4 2 3 2 1 1 1 1 0 1 4 4 3 4 5 6 7 9 9 9 10 10 11 11 12 13 12 12 13 13 13 13
10 12 18 18 17 18 16 17 18 12 8 11 12 10 9 12 15 9 12 12 13 13 14 13 13 9 11 12 9 9 8 9 12 11 11 14 17 15 15 16 15 13 12 10 9 9 10 9 9 8 7 6 6 6 4 3 3 2 1 1 1 1 1 1 4 4 3 3 4 5 6 7 8 8 9 9 9 11 13 14 13 13 13 13 13 13
12 13 18 19 17 19 17 16 17 13 9 11 13 13 12 13 13 11 16 13 9 12 15 12 12 10 11 14 12 10 10 11 12 13 12 14 16 15 14 15 15 14 12 11 10 10 9 8 8 7 7 6 5 5 5 4 4 2 2 2 1 1 2 2 3 4 5 4 4 5 5 6 6 7 9 8 9 11 12 13 13 13 13 13 13 13
11 14 16 17 18 20 19 14 16 16 10 9 12 16 16 13 13 13 17 14 8 11 14 12 11 8 10 14 15 14 13 13 11 11 13 15 17 16 14 14 15 15 14 12 11 11 9 8 8 8 9 8 7 5 4 4 4 3 2 2 1 2 3 3 4 5 6 5 5 6 6 6 7 9 11 10 11 12 12 13 14 14 14 14 13 14
12 15 16 18 19 17 15 12 15 18 12 7 12 17 16 13 14 14 14 12 8 10 13 15 14 9 8 12 15 16 14 14 12 9 10 13 14 13 13 13 14 14 13 13 13 12 10 10 10 9 9 8 6 4 3 3 3 3 2 1 1 1 2 4 5 7 7 6 7 8 8 9 9 10 12 12 13 14 14 14 15 15 16 15 14 13
13 16 16 17 16 12 13 13 15 18 14 9 12 16 13 11 13 15 13 10 10 10 11 16 16 10 7 10 13 16 15 14 14 12 11 13 14 15 15 15 16 15 14 14 13 11 9 8 8 7 6 5 3 2 2 2 2 1 1 1 1 2 2 4 5 6 7 9 10 10 10 12 13 13 14 14 14 15 16 16 17 17 17 17 16 15
13 17 16 16 13 11 14 15 16 17 15 14 13 15 14 10 10 10 11 10 10 11 11 15 17 11 7 11 12 13 15 14 13 11 11 14 16 15 15 16 16 15 15 14 12 10 8 5 5 5 4 3 2 2 2 1 1 0 0 1 2 2 3 5 5 7 8 9 10 11 12 14 15 15 15 15 16 16 18 18 18 19 19 18 18 16
12 13 13 14 13 13 15 16 17 18 18 17 11 12 14 12 9 8 9 10 9 11 12 15 18 14 8 8 11 12 13 14 12 11 12 14 15 14 14 14 14 14 14 12 11 9 7 5 5 6 6 6 4 3 2 2 2 1 1 1 2 3 3 4 5 7 9 9 11 11 13 15 16 17 17 18 18 18 20 20 20 20 20 20 19 18
14 13 11 14 17 16 15 16 17 18 20 17 9 10 12 10 9 8 7 9 9 10 13 15 18 18 10 7 10 11 14 17 13 12 14 15 16 14 13 14 14 14 13 12 11 10 9 8 8 8 8 7 6 4 3 3 2 2 2 2 3 3 4 5 5 6 7 8 9 10 12 14 14 16 17 17 17 19 21 22 22 21 20 21 20 19
14 13 13 15 19 20 14 12 14 15 17 16 11 11 12 9 9 9 9 9 9 9 12 16 18 16 8 4 11 12 12 15 14 13 16 17 18 16 15 16 15 15 14 13 12 11 10 8 8 8 7 7 5 5 4 4 3 2 2 3 3 3 4 4 5 6 6 7 8 9 11 12 13 14 14 15 15 18 20 22 22 21 22 23 21 18
11 12 15 15 16 19 17 12 12 12 14 15 13 12 11 10 9 10 10 9 9 9 12 17 17 11 3 5 13 15 13 14 14 14 16 18 20 19 19 18 17 15 14 13 11 10 9 8 8 7 7 6 6 5 5 5 4 3 3 3 3 3 4 5 5 5 6 7 7 8 10 11 12 13 13 14 16 18 20 21 23 22 22 23 21 18
12 11 15 15 12 17 20 16 12 12 14 14 13 12 11 10 8 9 9 9 10 9 10 15 13 7 7 8 11 14 17 18 16 15 17 20 20 19 19 18 16 15 13 12 11 11 9 8 8 7 7 7 6 6 5 5 4 4 4 4 4 4 5 5 5 6 6 6 7 8 9 10 11 11 12 13 14 17 19 20 22 23 23 22 19 18
14 11 14 17 14 16 18 16 15 15 13 12 12 12 11 11 9 8 8 6 8 9 9 9 3 4 7 8 10 13 16 18 18 17 18 20 19 18 17 16 15 14 13 13 12 11 10 9 9 8 7 7 6 6 6 5 4 4 5 4 4 5 5 6 6 7 7 7 7 8 9 9 10 11 12 13 14 16 18 19 21 23 24 22 19 17
12 10 15 19 17 18 18 16 17 16 11 9 12 12 11 13 11 8 7 5 5 9 9 7 5 6 6 6 9 13 14 16 17 17 17 18 18 17 16 15 15 14 13 12 12 11 10 9 9 8 8 7 6 6 6 6 5 5 5 5 5 6 6 7 7 8 8 8 9 9 9 10 11 12 13 14 15 17 19 20 22 23 24 23 20 18
11 9 14 20 17 19 21 20 18 17 14 9 11 12 11 12 12 8 8 6 8 9 9 10 9 9 8 6 8 13 14 15 16 15 16 17 17 17 16 15 15 14 13 12 11 11 10 9 9 8 8 7 7 6 6 6 5 5 5 6 6 7 7 8 8 8 8 9 10 9 9 10 11 13 13 14 16 19 20 22 24 24 23 22 20 19
11 8 12 20 18 17 20 19 16 18 21 15 10 11 10 11 12 9 7 9 10 9 8 11 11 8 8 7 11 15 16 16 15 14 14 15 17 17 17 16 15 14 12 12 11 10 9 8 8 8 7 7 7 6 6 6 6 6 6 6 6 7 8 8 8 9 9 9 10 11 11 11 11 13 15 15 16 19 22 23 24 24 23 21 19 19
10 7 8 16 19 16 14 13 12 15 19 16 12 13 11 10 10 9 8 8 9 9 8 10 12 9 8 11 16 18 18 18 16 14 13 14 18 17 16 15 14 13 12 11 10 9 9 8 8 8 7 7 7 7 6 6 6 6 6 7 7 7 8 9 9 9 9 9 10 11 12 12 12 13 14 15 16 19 21 21 22 23 23 20 18 17
8 7 6 12 17 15 11 12 14 14 15 13 12 14 12 9 9 9 9 8 9 10 8 9 10 5 3 9 17 19 19 18 16 14 14 16 19 17 16 15 13 12 11 10 9 9 8 8 8 8 8 7 6 6 6 6 6 6 7 7 7 8 9 9 9 9 9 10 11 11 12 13 13 13 14 15 16 19 20 20 21 21 20 18 16 15
7 7 7 9 12 14 12 15 17 17 16 13 10 11 12 11 10 10 10 9 9 9 8 8 8 3 3 3 12 16 16 17 18 17 16 19 19 18 16 14 13 13 11 10 9 9 8 8 8 8 7 7 7 7 7 7 7 7 8 8 8 8 9 10 10 10 10 11 12 12 13 14 14 13 13 13 15 18 18 19 19 17 16 16 14 14
7 6 8 9 11 14 15 17 18 19 19 16 12 12 12 12 11 10 10 10 9 9 9 9 6 3 2 2 9 14 16 19 21 20 19 19 19 18 16 14 13 12 11 10 9 9 9 9 8 8 8 8 8 8 8 8 8 8 9 9 8 9 10 10 10 10 10 11 13 13 12 13 13 12 13 13 14 16 17 17 16 15 15 16 14 13
7 6 9 10 9 12 15 17 18 19 18 15 13 14 14 13 13 12 10 9 8 9 10 8 6 4 1 4 11 17 21 22 20 20 20 19 18 17 16 14 13 12 11 10 9 9 9 9 8 8 8 8 8 9 9 9 9 9 9 9 9 9 10 10 10 10 11 11 12 12 12 12 12 12 12 13 14 16 16 16 15 13 15 16 15 14
8 8 9 9 8 10 12 14 15 17 15 11 12 16 17 17 18 15 10 8 8 10 12 7 4 4 4 7 14 20 21 20 19 20 21 19 18 17 16 14 13 13 12 11 10 10 10 10 9 9 9 9 9 9 9 9 9 9 10 10 10 10 10 10 10 11 11 11 12 12 12 12 11 11 12 13 13 14 15 15 14 13 13 15 17 14
8 8 10 9 10 12 12 12 12 12 11 11 14 19 20 21 22 16 10 8 7 10 12 7 5 7 7 10 15 17 18 18 19 20 21 19 18 17 16 15 14 13 12 11 11 11 11 10 10 10 10 10 10 9 9 10 10 10 10 11 11 10 10 10 10 11 11 12 12 11 12 12 10 11 14 14 13 13 14 14 14 13 11 13 14 11
6 9 9 7 7 8 8 11 13 13 12 14 17 21 22 22 21 16 10 9 9 9 10 9 14 15 12 14 16 16 17 18 18 20 20 19 18 17 16 15 14 13 12 11 11 11 11 11 11 11 11 11 11 10 10 11 11 11 11 11 11 10 10 10 11 12 12 12 12 12 12 11 10 11 14 15 12 12 13 13 13 13 11 10 10 8
6 8 6 2 4 3 4 7 15 19 17 17 19 21 22 22 21 18 12 10 10 8 7 12 21 20 17 18 18 18 17 17 18 19 20 18 18 17 16 15 14 13 12 12 11 11 12 12 12 12 12 12 12 11 12 12 12 12 11 11 11 11 11 11 12 13 13 13 13 13 13 11 10 10 12 14 12 11 11 12 12 11 10 9 7 5
7 6 4 3 6 3 4 7 11 17 18 18 19 19 20 22 21 18 15 13 12 7 5 13 19 19 18 18 17 17 18 18 20 21 20 19 18 17 16 16 15 14 13 12 12 12 12 13 13 13 13 13 12 12 12 12 12 12 12 13 13 13 12 12 13 14 14 15 15 15 14 13 10 8 8 10 10 9 9 10 10 9 8 8 6 3
8 4 5 5 5 4 4 4 6 13 17 18 18 15 15 18 17 16 12 7 6 6 11 14 13 14 15 16 16 18 21 23 22 21 20 20 19 18 17 16 15 14 13 13 13 13 13 13 13 13 14 14 13 12 12 12 12 12 13 13 13 13 13 13 14 15 15 15 16 15 15 13 10 8 7 7 8 8 10 11 10 10 9 7 6 5
8 4 5 6 6 3 4 4 7 12 12 12 12 12 14 14 11 11 8 6 6 10 15 17 17 12 10 15 20 22 24 24 22 21 21 20 20 18 17 16 15 14 14 14 14 13 13 12 12 13 14 14 13 12 12 12 12 12 13 14 14 15 15 14 14 15 15 15 15 16 16 13 10 9 8 8 10 10 11 12 12 11 9 8 8 7
8 6 5 7 7 4 4 9 11 9 7 9 8 5 9 11 6 4 6 7 7 13 15 15 15 9 8 16 21 22 24 24 22 21 21 19 19 18 17 16 15 15 15 15 14 13 13 12 12 13 13 13 13 12 12 12 12 12 13 13 14 15 15 15 15 15 15 15 17 17 16 14 12 11 10 10 12 13 13 13 12 11 9 8 8 8
9 8 6 6 5 4 8 10 10 8 7 8 7 5 1 7 8 8 10 10 7 11 10 7 10 11 13 17 18 18 21 22 21 21 20 20 19 17 17 16 15 15 15 15 14 13 13 12 11 11 12 12 11 11 11 12 12 13 13 13 14 14 14 15 16 15 15 16 17 17 17 16 14 13 13 14 15 15 14 14 14 14 12 9 7 6
10 9 6 4 3 4 9 9 9 9 8 4 2 2 3 5 8 10 11 12 11 9 7 8 13 15 15 16 17 18 19 20 21 20 18 19 19 18 17 16 16 16 15 14 14 13 12 11 10 10 11 11 11 11 11 12 12 13 13 13 13 13 14 16 15 14 15 16 17 16 16 17 17 17 17 17 16 15 15 15 16 17 15 12 9 7
9 8 5 5 4 4 7 9 8 8 5 2 2 2 3 5 10 14 14 13 13 13 15 17 18 17 16 19 21 23 23 22 21 19 17 16 17 18 18 17 16 16 15 14 14 13 12 11 11 11 10 10 10 10 11 12 12 12 13 13 13 14 16 15 14 14 15 16 16 16 15 16 18 19 19 18 16 15 15 16 17 17 16 14 11 10
8 7 5 6 6 6 7 8 6 4 4 4 4 5 5 7 10 13 12 11 11 11 14 17 17 17 21 23 24 26 27 26 22 18 15 15 15 17 17 16 15 15 15 16 16 15 13 12 11 12 12 11 10 9 11 12 11 12 13 13 14 16 16 15 15 15 15 16 16 16 15 15 16 18 19 18 16 16 16 17 17 16 15 14 12 11
10 9 9 7 6 7 7 5 3 3 4 5 5 5 5 4 4 5 7 7 7 9 13 16 16 18 21 23 25 27 27 24 18 13 12 14 15 15 15 15 16 16 17 17 17 15 14 13 13 13 12 11 10 11 11 11 11 11 12 13 15 15 15 16 17 16 15 15 16 16 16 15 16 18 19 19 19 19 18 18 16 14 12 12 13 13
5 6 8 7 5 6 7 5 4 5 4 5 6 5 3 2 1 4 8 6 4 9 14 16 15 18 20 22 25 25 20 14 9 7 10 13 14 14 15 16 17 18 17 16 15 14 13 13 13 12 11 10 11 12 11 10 10 11 13 15 15 15 15 17 17 16 15 15 15 16 17 17 16 18 20 21 22 22 21 19 17 14 12 11 12 13
4 4 3 6 7 7 7 7 6 4 1 3 6 6 4 2 1 2 5 5 6 10 16 18 18 18 20 21 22 19 12 6 6 8 12 14 14 14 15 16 17 19 18 16 15 14 14 13 13 12 12 12 12 12 12 11 11 12 14 15 15 15 16 17 16 16 15 15 16 18 19 19 18 18 21 23 23 22 22 21 19 16 13 12 12 12
4 0 4 6 8 8 8 5 2 3 3 4 7 7 5 3 2 4 4 5 9 13 17 19 20 19 20 21 18 9 2 4 10 14 16 17 15 15 15 16 17 18 17 16 15 15 14 14 13 13 13 14 13 13 12 13 14 15 16 16 15 15 16 16 15 15 16 16 17 17 18 19 20 20 21 23 22 21 22 21 19 18 17 16 16 15
5 6 5 6 7 8 8 5 3 3 4 5 5 5 5 3 4 4 3 7 13 16 17 20 21 21 20 18 12 4 6 11 20 22 20 18 16 16 15 15 16 15 15 16 16 15 14 13 13 13 14 14 13 12 12 13 14 15 16 16 15 15 15 15 15 16 16 17 18 19 19 21 21 21 21 20 18 18 18 18 17 17 18 18 18 17
5 6 6 6 5 7 7 6 4 3 3 3 5 5 2 2 3 3 7 12 17 18 18 20 22 21 18 14 13 15 19 23 26 24 21 19 17 17 16 15 16 15 15 16 16 14 13 13 14 14 14 14 13 13 12 13 14 15 16 17 16 14 14 14 15 16 17 19 21 23 24 24 24 23 22 20 19 18 18 17 15 14 14 14 14 15
1 2 5 4 1 4 7 6 4 3 2 2 5 4 2 2 4 10 13 16 17 18 20 22 21 19 18 19 21 23 25 26 25 22 20 19 18 17 16 16 17 16 15 15 14 13 13 14 14 14 14 14 14 13 13 14 15 15 16 16 15 14 13 13 14 14 16 17 19 21 22 22 22 22 21 21 20 19 19 18 17 16 15 13 13 13
5 4 2 3 4 2 4 4 3 6 6 2 1 4 6 7 12 16 17 18 18 18 20 20 19 19 22 24 26 26 25 25 24 23 21 20 19 18 17 17 16 15 15 14 13 13 13 13 13 13 13 13 13 13 14 15 16 16 16 16 14 13 14 14 13 13 14 15 17 18 18 19 20 20 20 19 18 18 18 18 18 18 18 18 16 15
5 4 3 6 6 5 6 5 6 9 11 9 8 11 13 13 15 16 17 18 18 17 17 19 20 21 24 27 27 26 25 25 24 23 23 21 19 18 17 16 16 15 15 14 13 12 12 13 13 13 13 13 13 13 14 15 16 17 16 15 14 14 14 14 14 15 15 15 15 15 16 16 17 18 19 19 19 20 19 18 17 18 18 19 19 19
5 3 3 6 7 9 12 10 9 11 13 12 13 13 14 15 16 16 17 17 17 16 18 21 23 24 24 26 26 25 24 25 25 24 23 22 19 17 17 17 16 15 14 14 13 13 13 13 13 13 13 13 13 14 14 14 15 15 15 14 13 14 14 14 15 16 15 15 15 15 15 16 17 17 17 18 19 20 20 19 18 18 18 18 19 19
3 1 3 6 6 5 7 8 9 11 13 13 13 13 15 16 16 16 16 17 18 20 21 23 25 25 24 24 26 27 25 24 25 24 22 21 20 19 18 18 18 17 16 14 13 13 13 13 13 13 14 14 14 14 14 14 14 14 13 13 13 13 13 14 15 15 15 15 15 15 16 17 18 18 18 18 18 18 19 19 18 18 18 18 18 17
2 1 3 7 5 4 7 10 10 12 13 12 13 14 16 17 16 17 18 19 21 23 24 24 25 24 22 22 25 27 25 23 23 24 22 20 20 19 19 18 19 20 19 17 15 14 13 13 13 13 13 14 14 13 13 14 13 13 13 13 12 12 13 14 14 14 14 14 15 15 16 17 18 18 18 19 19 18 19 20 20 20 20 20 19 17
3 4 4 8 9 8 8 11 11 12 12 10 12 14 16 17 19 20 21 23 25 26 25 23 21 21 21 23 24 25 25 24 23 24 23 21 20 19 19 18 18 19 19 19 18 16 14 14 13 13 13 14 13 13 13 13 13 12 12 12 12 12 13 14 13 13 13 13 13 13 14 14 15 15 15 16 18 20 20 20 20 21 22 22 21 20
2 4 5 6 6 5 7 14 14 9 8 10 12 14 16 19 21 22 23 24 25 25 24 24 23 22 22 23 23 24 25 25 23 23 23 21 20 20 19 19 19 19 18 17 17 16 15 15 14 14 14 13 12 12 12 12 12 12 11 10 10 11 11 12 12 13 13 12 12 12 12 12 13 13 12 12 14 16 18 20 20 22 23 24 23 22
4 2 3 3 3 6 14 19 13 9 12 15 16 16 18 20 22 23 24 24 23 23 23 24 25 25 23 22 22 23 24 25 23 23 22 21 20 20 19 18 18 17 16 16 15 15 15 14 14 14 14 13 12 12 12 12 12 11 11 11 10 10 10 10 11 12 12 12 13 13 12 12 12 13 13 12 11 11 13 16 18 21 23 24 25 24
Wind_Direction
192 200 207 211 211 206 208 212 221 227 223 215 202 212 219 197 209 202 176 178 182 195 193 196 214 179 152 179 171 176 185 191 192 153 139 162 168 162 146 129 126 123 121 130 134 135 141 153 152 145 144 143 152 145 126 121 102 141 160 331 291 280 220 241 256 255 260 269 262 259 260 267 277 276 275 279 276 270 263 269 279 281 277 268 266 272
196 212 210 209 214 209 210 213 221 230 238 237 211 206 216 200 208 200 164 169 178 200 197 192 213 189 159 175 168 173 180 191 195 155 147 170 180 170 145 137 133 123 127 132 133 137 137 145 152 148 146 142 140 135 139 143 131 169 188 228 270 281 242 249 267 268 285 285 270 267 262 255 263 270 275 278 276 272 267 272 278 279 277 270 263 265
201 218 213 208 213 213 212 212 221 229 234 242 221 206 213 200 203 181 146 171 185 202 196 188 210 193 154 165 165 176 183 176 182 174 168 173 181 170 144 141 135 128 135 134 135 140 136 141 152 153 147 143 143 137 137 145 148 168 181 205 261 273 207 297 285 267 265 268 259 253 247 242 242 248 259 265 266 267 268 273 278 279 280 275 267 266
202 213 212 208 211 212 209 208 216 224 221 230 221 209 210 196 204 183 150 180 191 203 203 183 197 189 148 157 166 172 172 157 160 172 166 167 181 174 153 153 146 136 134 134 138 136 134 138 139 141 141 144 147 135 127 142 153 159 184 216 258 279 78 248 267 265 253 264 275 271 257 252 254 250 249 256 266 270 268 269 271 271 275 278 274 271
208 204 206 206 208 209 208 205 210 214 207 223 226 220 213 200 208 181 151 180 189 207 226 198 190 190 165 172 176 161 156 157 161 165 161 168 180 172 158 160 154 142 136 140 144 136 138 138 134 139 137 134 139 135 133 141 152 152 216 270 290 284 286 235 263 291 293 279 291 298 292 281 281 283 272 261 265 270 271 271 267 263 265 270 270 264
217 201 198 204 205 206 210 205 203 206 201 215 226 232 229 208 202 172 162 182 186 201 226 220 203 193 181 186 180 166 172 176 171 171 172 169 169 161 151 148 143 141 142 144 143 137 138 136 140 146 139 139 146 146 141 141 159 170 195 251 295 290 299 302 286 294 296 296 294 287 288 289 290 290 281 272 270 270 273 276 272 267 265 264 264 260
220 202 193 203 204 203 212 207 197 203 212 213 210 225 235 218 201 184 174 184 193 198 202 207 213 195 188 196 182 173 177 174 169 168 173 176 174 165 151 141 137 138 138 136 130 129 133 137 145 147 140 147 150 145 135 135 160 170 177 211 262 295 307 316 299 294 296 294 286 285 287 280 272 267 267 270 271 268 268 271 273 272 267 261 261 261
215 208 193 202 205 200 208 206 193 201 218 218 189 205 235 233 204 187 180 190 201 200 189 195 218 223 200 193 177 173 176 168 165 161 160 164 159 145 134 131 129 130 130 125 122 125 128 130 132 132 139 152 151 133 121 133 161 160 159 184 190 246 299 302 296 301 304 298 292 295 295 283 274 267 267 268 267 267 267 268 270 270 269 266 263 260
202 212 195 192 203 200 204 206 195 198 216 223 186 190 222 241 213 189 184 203 203 198 195 194 211 232 211 188 175 178 181 171 163 157 148 137 120 108 112 114 110 113 115 111 109 111 112 110 106 106 128 159 169 125 100 122 160 161 176 240 213 229 274 277 284 295 294 296 295 291 284 279 279 276 272 270 269 269 268 267 267 266 267 267 265 258
198 214 199 187 204 208 203 208 201 196 215 227 194 183 204 225 221 198 192 206 206 210 209 190 198 223 216 182 177 184 185 173 162 152 144 137 123 110 112 112 108 109 106 100 97 97 97 95 89 92 103 119 133 108 84 76 72 34 315 307 289 284 274 259 264 272 271 278 283 281 277 275 276 275 273 271 270 269 269 267 268 268 268 266 264 259
199 196 197 197 212 215 203 207 204 195 213 228 200 180 200 210 212 213 212 213 212 218 213 196 199 217 218 172 176 197 185 167 156 148 142 135 128 122 118 117 114 109 103 100 101 99 101 103 98 97 95 91 93 96 80 57 48 19 349 336 324 321 308 288 276 272 269 270 271 271 271 269 269 269 269 270 268 269 270 268 266 268 268 267 265 262
202 180 198 210 215 217 206 204 201 195 210 222 203 189 199 196 202 212 218 222 225 220 209 205 206 210 221 203 187 192 173 159 152 149 146 136 130 129 121 116 113 109 106 109 110 106 103 97 94 95 91 87 86 84 76 54 47 30 1 354 349 335 323 318 307 294 287 282 280 277 276 276 276 275 273 273 271 270 270 268 266 265 265 265 263 260
211 192 198 205 210 214 209 201 195 194 209 214 198 198 200 186 193 203 202 210 226 223 205 209 211 207 224 207 158 145 139 144 142 143 144 136 131 127 119 115 111 110 109 109 108 103 98 89 84 85 81 78 74 69 62 49 46 45 27 17 7 340 330 334 320 310 302 293 291 288 287 290 290 289 283 278 279 279 274 269 265 262 261 261 259 257
210 203 198 200 204 207 210 206 191 188 203 208 197 198 203 193 189 197 200 200 214 223 210 210 213 195 140 97 124 122 112 114 121 134 139 132 127 122 116 112 105 104 104 101 99 93 91 87 81 79 75 71 64 56 52 46 44 43 32 24 17 351 338 343 328 315 309 300 296 290 287 289 290 291 286 281 283 282 277 271 265 261 261 261 257 253
201 201 198 202 193 193 211 213 194 192 198 201 203 206 211 207 194 194 200 199 200 210 210 210 211 180 139 106 105 115 109 102 103 119 124 119 119 115 110 106 101 101 98 94 94 90 87 86 81 77 71 66 59 52 46 43 41 30 19 14 11 358 343 340 330 318 310 299 294 289 286 285 284 285 285 284 285 283 278 274 269 264 260 258 256 252
206 206 193 199 193 188 210 213 194 196 199 195 207 217 217 213 201 193 213 226 205 201 204 204 193 88 118 113 112 122 117 113 113 119 121 117 118 114 106 104 102 99 98 95 92 89 87 84 79 74 67 62 56 49 41 36 33 17 8 4 1 356 341 334 330 321 312 301 293 291 291 291 289 289 290 292 293 289 283 277 272 267 262 256 253 254
203 207 184 187 196 194 201 208 199 199 199 190 206 218 217 219 215 198 211 249 226 208 200 181 117 96 127 130 138 141 129 127 128 128 129 123 119 113 105 106 105 101 100 98 93 89 86 80 74 68 60 55 48 42 34 26 20 7 1 356 349 345 335 331 326 314 306 301 294 291 291 293 294 293 293 295 295 290 284 279 273 268 265 258 252 254
200 207 179 178 194 194 191 205 211 207 206 198 203 212 214 221 224 212 205 207 211 214 204 186 157 144 165 162 157 158 145 138 136 133 132 125 117 111 108 109 108 105 102 97 95 91 84 78 72 65 58 51 43 35 27 19 11 2 358 352 342 337 333 329 319 306 303 304 300 292 287 288 292 295 296 298 297 292 287 282 276 270 264 258 253 253
208 209 178 180 191 188 185 202 213 206 211 216 206 204 216 220 213 209 215 206 204 209 204 190 170 166 192 175 165 172 158 144 141 138 136 128 119 114 114 113 109 106 103 97 94 87 80 75 68 64 56 46 38 29 23 16 9 3 359 353 345 339 336 331 323 314 308 307 304 296 289 287 288 293 298 300 300 297 293 289 285 278 269 261 256 255
215 218 182 181 188 185 180 198 208 197 205 221 215 202 217 231 212 206 217 211 207 206 200 196 188 192 206 177 170 174 160 149 148 144 140 129 122 121 120 117 111 105 101 95 90 83 76 69 61 56 49 40 32 23 18 13 8 4 360 357 353 348 344 339 334 324 306 298 301 300 298 296 292 290 293 297 301 300 299 297 292 284 277 266 258 255
210 221 194 181 185 189 187 196 206 196 192 210 216 202 205 218 212 213 216 211 216 211 197 202 200 186 170 166 167 166 155 149 150 145 136 128 123 121 118 114 109 105 102 96 90 84 76 69 62 56 48 39 31 25 19 13 9 4 359 359 357 353 350 345 340 330 311 303 306 308 306 304 301 296 295 297 300 302 306 308 302 295 287 272 257 250
204 213 194 187 191 198 198 194 201 204 197 200 211 208 206 207 206 212 213 210 219 217 206 207 195 128 34 163 159 156 152 149 148 141 129 124 121 117 114 112 109 107 104 99 93 87 81 76 69 59 49 40 33 30 25 19 16 9 3 3 2 356 353 350 346 339 329 322 321 318 312 309 308 304 301 302 304 307 313 315 312 311 302 284 267 254
200 215 194 197 206 203 196 191 200 210 205 199 207 216 209 204 209 214 207 205 216 218 217 213 186 120 13 173 148 147 145 141 140 134 124 121 117 113 113 112 111 109 105 102 97 89 83 77 68 58 48 40 34 32 31 27 21 14 9 6 4 359 356 353 348 343 338 333 329 325 317 314 314 312 311 309 307 310 316 317 316 319 312 298 285 269
183 224 206 199 209 207 198 193 201 211 209 202 207 218 216 205 210 222 218 207 212 220 221 210 173 147 147 126 123 126 128 130 133 131 124 120 118 118 120 118 115 112 107 104 97 87 80 71 62 57 49 44 40 37 34 29 22 18 13 10 6 3 359 356 351 347 344 339 335 332 326 324 325 324 321 315 308 310 315 318 319 319 313 305 291 275
177 216 212 196 197 202 199 195 197 204 211 209 202 211 221 212 205 219 230 215 218 229 224 211 156 147 150 131 125 124 126 129 132 130 124 123 126 127 125 122 118 115 109 103 94 84 77 70 63 58 52 46 44 42 37 29 25 21 17 13 11 5 359 355 354 353 351 347 345 344 339 337 338 335 326 317 311 312 315 316 319 319 314 307 295 285
182 212 213 203 201 196 193 195 194 195 204 213 205 203 214 217 209 209 219 211 215 230 223 202 138 129 139 147 141 134 133 135 133 129 126 127 131 129 125 122 119 114 107 99 90 82 77 73 67 62 58 53 50 48 41 34 30 26 21 16 15 10 2 360 359 357 358 359 360 357 350 345 345 341 335 327 318 318 320 317 319 324 325 316 306 299
193 213 210 215 227 214 203 204 199 193 197 209 209 201 204 216 212 205 215 213 201 224 229 179 139 138 152 162 154 143 141 140 135 130 129 131 132 128 125 122 116 110 105 98 93 86 80 76 70 66 63 58 55 52 45 38 33 30 27 21 19 14 7 5 6 4 4 7 9 7 3 358 356 352 346 338 328 323 324 324 327 332 332 324 316 313
208 207 187 215 252 261 287 244 210 199 198 205 211 206 202 206 206 205 215 207 193 219 225 154 141 146 162 163 151 144 143 140 135 133 133 133 132 128 125 122 116 111 106 103 97 89 82 77 73 70 68 61 56 53 49 43 37 35 32 27 24 21 15 12 13 13 10 9 10 10 6 1 359 358 355 353 349 337 330 333 338 340 334 325 322 321
223 201 158 211 229 227 294 277 225 203 198 201 210 213 207 202 203 207 210 209 213 219 169 150 148 150 155 149 139 140 141 135 133 134 134 135 133 130 128 124 119 114 110 106 100 91 84 81 77 71 67 63 57 55 52 45 41 39 35 33 29 25 22 19 18 18 15 11 10 8 4 356 350 350 352 357 356 345 336 335 337 341 335 322 323 323
223 190 146 197 211 209 242 276 250 219 205 203 209 214 212 206 206 208 200 202 216 161 137 143 137 130 138 137 132 136 134 128 128 131 134 137 135 133 131 125 121 118 113 108 103 95 87 85 80 71 66 64 58 55 53 46 43 41 37 36 34 28 26 25 22 19 17 14 11 7 5 0 353 351 350 354 358 350 346 345 343 347 343 326 321 316
211 181 145 188 188 179 212 218 229 224 203 191 197 205 209 209 210 203 174 104 86 118 128 129 120 111 126 131 129 132 130 127 130 135 137 138 137 135 132 127 124 119 113 109 105 97 92 90 81 70 65 62 58 55 53 47 44 44 40 37 33 30 28 28 25 22 18 16 13 8 9 9 5 5 5 10 15 10 4 2 359 358 354 343 334 322
203 185 154 199 191 159 216 208 194 195 176 147 140 166 197 189 172 144 115 81 104 133 133 129 128 129 129 123 125 131 131 131 135 137 138 138 139 137 133 129 126 121 115 111 105 99 97 93 83 72 65 62 61 56 52 49 45 43 41 36 32 31 29 28 28 25 21 18 15 15 19 21 18 16 21 29 32 29 25 22 21 20 12 360 352 343
203 190 165 199 187 167 218 202 161 160 178 149 106 36 45 147 129 96 73 54 87 141 150 141 134 137 134 128 129 134 134 133 136 138 139 140 140 137 132 129 126 121 118 112 105 101 99 93 83 72 63 59 60 56 51 50 45 42 41 37 34 32 31 29 26 24 24 23 21 24 29 32 30 29 33 37 38 35 33 31 31 32 29 21 13 5
202 200 185 184 171 201 210 180 147 171 182 151 107 352 30 98 115 107 89 65 66 99 106 100 119 131 135 133 133 133 130 130 133 136 137 138 138 135 130 128 126 123 119 113 106 102 98 91 80 67 58 53 54 53 52 51 45 42 42 40 36 35 37 33 25 21 27 28 27 30 34 36 38 40 42 43 43 39 36 36 39 42 40 35 35 45
186 181 198 197 176 203 195 166 167 190 173 124 187 171 91 94 100 95 89 80 79 91 100 107 121 131 129 126 126 123 121 121 123 125 126 128 131 132 130 129 127 123 119 117 113 108 104 94 79 70 64 54 48 47 48 49 48 46 45 43 40 40 42 37 27 26 31 33 32 33 36 38 40 44 48 50 52 50 45 44 49 54 54 52 55 66
169 158 208 215 174 175 190 177 171 169 127 119 141 138 134 139 119 92 76 74 83 100 112 119 124 124 122 123 122 120 119 117 111 110 115 121 126 130 131 130 127 124 127 127 123 120 117 104 91 86 75 60 52 48 44 44 50 52 49 46 44 44 43 37 32 32 33 34 34 34 34 36 40 46 51 53 54 52 49 48 51 56 59 59 63 68
182 182 199 200 179 180 182 158 122 135 144 140 150 155 141 138 134 104 90 84 84 102 118 125 124 124 125 125 125 125 122 114 100 91 103 117 123 126 128 126 125 128 134 133 126 124 121 110 102 94 79 66 61 58 51 45 49 55 53 50 49 46 43 39 36 34 33 34 34 34 35 37 42 50 56 57 56 53 50 47 49 53 57 60 63 63
189 212 204 187 197 202 176 155 150 164 167 152 153 155 117 61 27 97 106 108 104 119 133 136 132 132 132 131 134 137 130 112 95 98 115 121 123 124 123 123 124 128 131 127 119 116 114 105 100 92 80 71 64 60 59 54 53 57 55 53 51 47 44 42 39 36 35 36 38 40 43 44 44 50 56 57 57 54 50 46 45 48 53 60 66 64
62 355 264 198 194 200 187 183 178 156 109 119 139 145 144 161 214 131 129 138 138 141 147 145 139 139 140 141 148 154 151 125 121 139 139 134 129 126 120 119 125 130 127 119 112 109 106 99 94 90 84 76 66 62 66 69 68 64 60 57 53 48 46 44 41 39 40 44 50 53 54 53 51 51 53 54 54 54 52 49 47 49 54 58 63 62
110 74 263 220 193 191 190 182 143 70 54 101 131 142 139 132 226 231 202 158 148 152 152 147 144 144 145 149 155 166 197 153 150 149 144 138 132 127 120 117 121 123 119 115 112 106 99 93 90 86 81 75 69 65 67 71 72 69 65 62 57 52 51 48 45 47 48 52 56 56 54 56 58 61 62 60 56 56 56 55 55 58 61 61 62 62
175 183 207 210 191 183 176 153 105 86 90 103 123 135 134 151 214 222 165 135 144 148 146 145 144 142 145 152 152 103 70 121 138 140 138 136 132 126 121 117 115 114 114 117 114 103 95 92 89 83 76 72 69 67 67 69 70 68 67 66 61 56 56 55 53 55 57 58 60 59 59 60 61 64 68 69 67 65 64 62 60 60 62 63 65 66
206 190 180 188 200 193 167 132 112 106 85 102 132 122 108 223 206 128 110 129 138 139 139 141 141 139 137 132 119 106 107 119 128 131 133 135 133 127 123 120 116 115 118 119 111 101 96 93 88 81 76 73 71 70 72 74 73 70 68 68 66 61 60 62 62 63 65 65 65 66 66 66 64 63 64 66 66 66 65 64 63 61 61 62 62 63
272 221 174 140 122 206 166 139 134 138 128 199 183 148 18 341 133 123 121 125 128 129 133 134 134 134 127 116 115 118 119 122 125 127 130 132 131 128 124 120 117 116 117 115 107 101 100 95 88 84 79 76 74 73 73 75 74 71 69 68 68 67 66 68 68 69 67 65 64 65 65 65 66 65 64 64 63 63 63 64 64 63 62 60 58 56
10 323 212 94 17 281 173 133 100 102 99 80 181 117 89 96 123 131 128 124 126 129 130 126 126 128 126 122 122 123 123 125 127 128 129 129 128 127 124 120 119 117 114 111 106 104 102 96 91 88 83 78 76 74 73 74 75 73 70 68 69 70 71 71 72 72 69 64 61 59 60 63 64 64 63 62 61 62 62 62 64 65 64 61 59 58
33 26 73 72 44 40 74 91 96 93 87 75 80 100 107 111 121 129 128 128 131 134 133 128 125 126 127 126 125 125 127 129 129 127 128 128 128 128 126 123 121 118 114 110 107 105 104 100 95 91 87 83 80 76 75 75 75 74 71 69 68 70 72 73 74 72 70 68 66 62 60 61 63 63 61 58 55 55 56 58 61 65 67 65 61 59
66 58 79 99 103 87 78 92 111 100 88 86 92 102 111 115 121 126 126 128 131 135 136 132 128 129 130 128 127 128 130 131 129 128 129 128 129 129 126 122 119 116 112 109 108 109 107 103 100 95 90 85 81 78 78 76 74 74 72 71 71 70 71 74 75 73 70 69 71 69 67 64 61 61 62 59 55 52 51 52 55 58 61 64 61 59
90 4 73 117 145 130 92 103 113 103 98 102 105 108 112 115 121 125 123 125 128 130 130 129 129 130 131 129 129 130 131 131 130 129 130 130 131 132 129 126 126 125 120 112 110 112 109 105 103 98 93 87 82 79 79 76 74 74 73 72 72 72 72 72 72 72 70 69 68 67 65 65 62 59 59 59 58 54 50 48 49 51 53 55 55 55
105 152 106 96 94 96 110 119 110 93 96 108 114 115 114 116 120 122 122 123 124 124 124 125 127 129 130 131 131 130 131 132 131 129 131 131 130 128 128 129 132 133 130 125 120 118 115 112 106 99 94 90 84 81 80 77 75 74 73 73 73 74 75 74 72 71 70 68 67 64 61 61 60 57 55 55 55 54 50 45 41 42 44 44 45 46
114 154 116 92 97 99 113 133 129 103 94 105 115 116 117 119 121 121 122 123 122 122 124 125 127 130 131 133 133 132 132 134 134 133 133 132 127 123 123 127 131 133 134 133 129 122 118 116 110 101 97 93 87 83 81 78 76 75 74 74 73 72 73 73 73 73 71 67 66 63 59 57 56 54 51 47 46 47 48 46 42 40 38 37 36 36
101 136 107 118 145 139 141 158 159 135 116 126 127 122 122 124 124 123 124 124 123 125 128 128 128 130 131 133 136 135 135 136 137 135 131 128 125 122 122 125 128 127 129 131 127 118 113 112 109 104 100 95 90 86 82 78 76 76 74 74 73 71 71 72 71 70 69 67 64 62 59 56 55 55 53 46 38 34 35 38 40 39 37 35 32 30
21 56 68 78 79 101 138 155 152 113 116 134 136 129 127 129 129 128 129 129 127 128 130 130 129 130 131 132 136 136 135 136 137 135 131 127 125 123 121 120 119 120 122 121 117 114 112 110 108 106 101 97 93 88 83 79 77 76 74 74 73 72 72 71 70 68 66 65 63 61 59 56 54 54 54 54 48 35 23 21 23 24 27 30 30 28
Height
1481 1481 1479 1477 1474 1473 1472 1471 1469 1463 1460 1461 1464 1466 1462 1463 1463 1456 1458 1460 1464 1472 1474 1472 1468 1464 1473 1476 1475 1479 1481 1481 1481 1486 1495 1499 1500 1502 1505 1509 1511 1513 1515 1516 1517 1519 1520 1522 1522 1523 1525 1526 1527 1528 1529 1529 1530 1530 1531 1531 1531 1531 1531 1531 1531 1531 1530 1530 1530 1530 1530 1530 1530 1530 1530 1530 1531 1531 1530 1529 1528 1528 1528 1528 1528 1528
1478 1478 1474 1472 1470 1469 1470 1469 1467 1463 1461 1461 1461 1464 1462 1462 1461 1454 1456 1459 1463 1471 1471 1470 1468 1464 1470 1474 1475 1479 1481 1482 1480 1485 1494 1497 1499 1501 1505 1510 1511 1513 1515 1516 1517 1519 1521 1522 1522 1524 1525 1526 1527 1528 1529 1529 1530 1531 1531 1531 1531 1531 1531 1531 1531 1530 1530 1530 1530 1529 1529 1530 1530 1530 1530 1530 1530 1530 1529 1528 1528 1528 1528 1528 1527 1528
1477 1474 1469 1468 1467 1467 1468 1467 1468 1466 1465 1464 1461 1463 1463 1460 1458 1455 1459 1462 1464 1470 1469 1469 1470 1466 1469 1473 1477 1480 1480 1481 1483 1485 1492 1495 1498 1500 1505 1510 1511 1514 1516 1517 1518 1519 1521 1522 1523 1524 1525 1527 1528 1528 1529 1530 1530 1531 1531 1531 1531 1531 1531 1531 1531 1530 1530 1530 1529 1529 1528 1528 1528 1529 1529 1528 1528 1528 1527 1526 1527 1527 1527 1527 1527 1527
1474 1470 1465 1465 1465 1466 1467 1467 1469 1467 1468 1467 1462 1463 1461 1457 1457 1459 1465 1467 1465 1466 1465 1468 1471 1470 1474 1478 1478 1479 1479 1481 1486 1488 1490 1494 1498 1500 1505 1509 1511 1514 1516 1518 1520 1520 1521 1522 1523 1524 1525 1527 1528 1528 1529 1530 1530 1531 1531 1531 1531 1531 1531 1531 1530 1529 1529 1529 1528 1527 1527 1527 1527 1527 1527 1527 1527 1526 1526 1525 1525 1525 1524 1525 1526 1526
1465 1462 1461 1463 1463 1464 1466 1468 1468 1469 1471 1469 1462 1460 1458 1455 1453 1454 1465 1470 1468 1468 1463 1464 1474 1475 1477 1482 1481 1480 1482 1485 1488 1490 1493 1495 1497 1500 1505 1508 1511 1514 1515 1519 1521 1521 1522 1523 1523 1525 1526 1527 1527 1528 1529 1529 1530 1531 1531 1531 1531 1531 1531 1530 1530 1529 1528 1528 1527 1527 1526 1526 1526 1526 1526 1526 1526 1526 1525 1524 1524 1524 1523 1523 1523 1524
1459 1457 1458 1461 1462 1463 1465 1465 1466 1468 1471 1469 1464 1458 1454 1453 1451 1453 1465 1472 1475 1478 1465 1462 1478 1480 1472 1476 1480 1481 1485 1487 1487 1490 1493 1495 1496 1500 1504 1507 1510 1513 1516 1519 1520 1521 1522 1522 1524 1525 1526 1527 1527 1528 1528 1529 1530 1530 1531 1531 1531 1531 1530 1530 1530 1529 1528 1527 1527 1527 1527 1527 1526 1526 1526 1526 1526 1525 1524 1523 1523 1523 1522 1522 1522 1521
1455 1453 1455 1459 1460 1462 1463 1462 1463 1466 1469 1468 1463 1459 1454 1451 1452 1455 1462 1471 1478 1479 1464 1461 1477 1479 1472 1473 1475 1478 1483 1486 1487 1489 1491 1494 1496 1500 1504 1507 1510 1513 1516 1519 1520 1521 1522 1522 1524 1524 1525 1526 1526 1527 1527 1528 1529 1529 1530 1530 1530 1531 1530 1530 1529 1529 1528 1528 1527 1527 1527 1526 1526 1526 1526 1525 1524 1524 1523 1523 1522 1521 1521 1521 1521 1521
1452 1451 1454 1457 1458 1459 1462 1461 1462 1464 1467 1464 1456 1457 1457 1452 1454 1457 1462 1470 1471 1468 1465 1464 1469 1473 1476 1473 1469 1475 1483 1486 1489 1490 1491 1492 1496 1500 1504 1507 1510 1513 1515 1517 1519 1520 1521 1522 1523 1523 1524 1525 1525 1526 1526 1527 1527 1528 1528 1529 1530 1530 1530 1530 1529 1529 1528 1528 1527 1527 1526 1525 1525 1524 1524 1524 1523 1522 1522 1521 1520 1520 1520 1519 1519 1519
1450 1452 1452 1455 1458 1459 1460 1459 1459 1461 1464 1459 1451 1456 1460 1456 1454 1454 1461 1468 1463 1465 1471 1467 1466 1476 1479 1471 1469 1475 1481 1486 1490 1491 1492 1494 1498 1503 1506 1509 1511 1513 1515 1516 1518 1520 1521 1522 1522 1523 1523 1524 1525 1525 1526 1526 1526 1526 1527 1528 1528 1529 1530 1529 1529 1528 1528 1527 1527 1526 1525 1524 1524 1523 1523 1522 1521 1521 1520 1519 1518 1518 1518 1517 1517 1517
1449 1449 1449 1454 1459 1457 1457 1456 1455 1460 1462 1453 1449 1456 1460 1459 1456 1455 1462 1464 1462 1470 1473 1465 1467 1478 1477 1468 1470 1477 1480 1485 1489 1490 1493 1496 1502 1506 1508 1511 1512 1514 1515 1516 1518 1520 1522 1522 1523 1523 1523 1524 1524 1525 1525 1525 1525 1526 1526 1527 1527 1527 1528 1528 1528 1528 1527 1526 1526 1525 1524 1523 1523 1522 1521 1520 1520 1519 1518 1517 1516 1516 1515 1515 1515 1514
1444 1448 1450 1453 1456 1453 1453 1455 1453 1457 1458 1451 1450 1457 1462 1462 1459 1461 1460 1458 1468 1476 1467 1459 1463 1471 1476 1472 1471 1474 1475 1480 1486 1489 1494 1499 1504 1508 1510 1512 1513 1514 1515 1517 1520 1522 1523 1523 1523 1524 1524 1524 1524 1524 1525 1525 1525 1527 1527 1527 1528 1527 1527 1527 1526 1526 1525 1525 1524 1523 1523 1522 1521 1520 1519 1519 1518 1517 1516 1515 1514 1514 1513 1512 1512 1512
1443 1449 1453 1451 1453 1451 1451 1453 1452 1454 1455 1452 1454 1459 1465 1467 1466 1470 1467 1464 1478 1477 1459 1456 1459 1465 1480 1478 1469 1467 1468 1475 1484 1488 1494 1501 1506 1509 1511 1513 1513 1515 1516 1518 1521 1522 1522 1523 1523 1523 1523 1523 1524 1524 1525 1525 1525 1526 1527 1527 1528 1528 1527 1526 1525 1524 1524 1523 1522 1522 1521 1520 1519 1518 1517 1516 1516 1515 1514 1513 1512 1511 1511 1510 1510 1510
1444 1445 1448 1450 1451 1449 1450 1452 1452 1454 1453 1452 1455 1459 1467 1475 1479 1484 1481 1477 1482 1470 1454 1455 1456 1463 1473 1468 1463 1468 1470 1476 1484 1488 1494 1501 1506 1510 1511 1513 1514 1516 1518 1519 1521 1522 1522 1523 1523 1523 1524 1524 1524 1524 1524 1525 1525 1525 1527 1527 1527 1528 1526 1525 1525 1524 1523 1522 1522 1521 1520 1519 1518 1516 1515 1514 1513 1513 1512 1511 1510 1508 1508 1508 1508 1507
1448 1443 1443 1448 1449 1446 1449 1449 1449 1454 1453 1451 1453 1459 1467 1474 1486 1493 1485 1481 1482 1467 1453 1451 1454 1468 1479 1472 1468 1475 1478 1481 1486 1491 1496 1502 1506 1510 1512 1514 1516 1517 1519 1520 1520 1522 1523 1523 1524 1523 1524 1524 1524 1524 1524 1524 1524 1525 1525 1526 1526 1526 1525 1524 1524 1523 1522 1522 1521 1521 1519 1518 1517 1516 1515 1513 1512 1511 1510 1508 1507 1506 1505 1505 1505 1505
1451 1450 1444 1444 1444 1444 1445 1441 1442 1449 1451 1451 1449 1453 1459 1460 1473 1487 1480 1478 1480 1469 1458 1453 1456 1471 1483 1484 1478 1478 1484 1488 1493 1497 1501 1505 1508 1511 1513 1514 1517 1518 1519 1520 1521 1522 1523 1523 1524 1523 1523 1524 1524 1524 1524 1523 1524 1524 1524 1524 1524 1525 1524 1523 1523 1522 1521 1521 1520 1519 1518 1517 1516 1515 1514 1512 1510 1509 1507 1506 1504 1504 1503 1503 1503 1503
1445 1447 1437 1438 1441 1442 1444 1438 1438 1446 1450 1452 1450 1451 1454 1447 1452 1467 1468 1464 1466 1468 1463 1460 1468 1477 1482 1487 1485 1484 1489 1491 1497 1503 1505 1508 1510 1511 1514 1515 1517 1519 1519 1521 1522 1522 1523 1523 1524 1524 1523 1524 1524 1524 1524 1523 1523 1523 1523 1523 1523 1524 1523 1522 1522 1521 1520 1519 1518 1518 1517 1516 1514 1513 1512 1510 1508 1507 1505 1504 1502 1501 1501 1500 1501 1501
1445 1443 1430 1436 1441 1439 1443 1441 1438 1445 1449 1452 1454 1452 1447 1439 1441 1457 1466 1461 1461 1471 1467 1461 1480 1493 1491 1494 1491 1487 1493 1494 1499 1506 1507 1509 1510 1511 1515 1517 1518 1520 1520 1522 1522 1523 1524 1524 1524 1524 1523 1524 1524 1524 1524 1523 1523 1523 1523 1522 1522 1522 1522 1522 1521 1520 1519 1518 1517 1516 1515 1515 1514 1512 1511 1509 1507 1505 1503 1502 1500 1499 1498 1497 1497 1497
1440 1440 1428 1434 1443 1439 1443 1446 1441 1441 1444 1448 1453 1448 1442 1441 1441 1448 1463 1469 1470 1475 1466 1458 1480 1496 1494 1498 1496 1490 1495 1497 1500 1506 1507 1509 1511 1513 1516 1518 1519 1520 1521 1522 1523 1524 1524 1524 1524 1524 1524 1524 1524 1524 1524 1524 1524 1523 1522 1522 1522 1522 1521 1521 1520 1518 1518 1516 1515 1514 1514 1513 1512 1511 1510 1508 1506 1504 1502 1500 1498 1497 1496 1495 1494 1495
1432 1438 1433 1432 1439 1440 1441 1448 1447 1442 1439 1441 1444 1443 1444 1450 1448 1448 1458 1468 1472 1477 1471 1464 1478 1490 1486 1489 1494 1492 1493 1497 1501 1505 1508 1509 1511 1514 1516 1518 1520 1521 1522 1523 1523 1524 1524 1524 1524 1524 1524 1525 1525 1525 1524 1524 1523 1522 1522 1521 1521 1521 1520 1519 1518 1517 1516 1515 1514 1513 1512 1512 1511 1510 1509 1507 1505 1503 1501 1499 1497 1495 1494 1493 1493 1493
1430 1438 1440 1432 1433 1438 1441 1445 1447 1442 1438 1439 1439 1438 1441 1443 1444 1447 1451 1456 1464 1472 1475 1474 1476 1478 1473 1473 1482 1486 1487 1494 1501 1504 1506 1509 1511 1514 1516 1518 1520 1521 1522 1523 1524 1524 1524 1524 1524 1524 1524 1525 1525 1525 1524 1524 1523 1522 1522 1521 1520 1520 1519 1518 1517 1516 1515 1514 1513 1512 1511 1510 1510 1509 1508 1506 1504 1502 1500 1498 1496 1494 1493 1492 1491 1491
1432 1438 1445 1438 1433 1438 1441 1440 1439 1436 1438 1442 1439 1436 1440 1440 1439 1445 1444 1442 1451 1460 1469 1476 1475 1470 1466 1464 1472 1479 1483 1491 1499 1502 1505 1508 1510 1513 1516 1518 1520 1522 1523 1524 1524 1525 1525 1524 1524 1524 1525 1525 1525 1525 1525 1524 1524 1523 1522 1521 1520 1520 1519 1518 1517 1515 1514 1513 1512 1511 1510 1509 1508 1507 1506 1505 1503 1501 1499 1497 1495 1494 1493 1492 1491 1490
1435 1438 1444 1444 1439 1438 1436 1431 1431 1433 1434 1440 1441 1438 1441 1441 1442 1451 1453 1443 1440 1446 1455 1465 1473 1477 1472 1466 1470 1478 1484 1491 1497 1501 1504 1507 1511 1514 1517 1519 1521 1522 1524 1524 1525 1525 1525 1525 1525 1525 1526 1526 1526 1526 1525 1525 1523 1522 1521 1520 1520 1520 1519 1518 1516 1515 1514 1512 1511 1510 1509 1509 1507 1506 1505 1503 1502 1500 1498 1496 1494 1494 1493 1492 1491 1489
1433 1434 1441 1445 1438 1430 1428 1428 1431 1432 1430 1435 1441 1438 1435 1437 1439 1448 1455 1449 1442 1443 1443 1448 1469 1484 1477 1470 1474 1479 1484 1491 1498 1502 1505 1508 1512 1515 1517 1520 1522 1523 1524 1525 1526 1526 1525 1525 1525 1526 1526 1526 1526 1525 1525 1525 1524 1523 1522 1521 1521 1520 1519 1518 1516 1515 1514 1512 1511 1510 1509 1508 1506 1505 1504 1503 1501 1500 1498 1496 1494 1493 1493 1492 1492 1490
1434 1436 1439 1441 1435 1425 1424 1426 1428 1429 1429 1433 1438 1435 1430 1433 1435 1436 1438 1440 1445 1449 1444 1448 1474 1490 1482 1475 1479 1483 1487 1495 1500 1503 1506 1509 1513 1516 1519 1521 1522 1524 1525 1526 1526 1526 1526 1526 1525 1526 1526 1526 1526 1526 1526 1525 1524 1523 1523 1522 1521 1520 1519 1518 1517 1515 1514 1512 1511 1509 1508 1506 1505 1504 1503 1502 1501 1499 1497 1496 1495 1494 1493 1493 1493 1491
1436 1438 1436 1441 1446 1441 1435 1433 1431 1429 1430 1430 1432 1432 1429 1427 1432 1435 1434 1437 1448 1451 1444 1453 1479 1490 1483 1481 1484 1486 1491 1497 1502 1505 1508 1511 1515 1517 1519 1521 1523 1525 1526 1526 1526 1526 1526 1526 1526 1526 1527 1527 1527 1527 1527 1526 1525 1524 1523 1522 1522 1521 1520 1519 1517 1516 1514 1512 1510 1509 1507 1505 1505 1504 1503 1502 1500 1499 1498 1496 1495 1495 1494 1494 1494 1492
1432 1434 1432 1439 1450 1448 1444 1442 1435 1431 1432 1430 1427 1429 1430 1426 1427 1435 1439 1445 1456 1454 1443 1454 1478 1488 1487 1488 1488 1489 1492 1497 1502 1506 1509 1513 1516 1518 1520 1522 1523 1525 1526 1526 1526 1526 1526 1526 1527 1527 1527 1527 1527 1528 1527 1526 1525 1525 1524 1523 1523 1522 1521 1519 1518 1516 1514 1512 1510 1509 1507 1505 1504 1504 1502 1501 1500 1499 1498 1497 1496 1495 1494 1494 1494 1493
1429 1431 1430 1435 1440 1437 1436 1435 1428 1427 1433 1433 1427 1425 1429 1428 1425 1431 1440 1446 1453 1453 1447 1453 1469 1483 1492 1494 1491 1492 1493 1497 1502 1507 1510 1514 1517 1518 1520 1522 1524 1525 1526 1526 1527 1527 1527 1527 1527 1527 1528 1528 1528 1528 1528 1527 1526 1526 1525 1524 1524 1523 1521 1520 1518 1516 1514 1513 1511 1509 1508 1506 1505 1504 1503 1501 1500 1499 1498 1497 1496 1496 1495 1495 1494 1494
1429 1432 1434 1438 1439 1434 1434 1434 1426 1424 1430 1432 1429 1426 1426 1426 1426 1432 1439 1439 1442 1451 1456 1456 1461 1474 1485 1488 1490 1494 1495 1498 1502 1507 1511 1514 1517 1519 1521 1522 1524 1525 1526 1527 1528 1528 1528 1528 1528 1528 1529 1529 1529 1529 1529 1529 1528 1527 1526 1526 1525 1524 1522 1520 1518 1517 1515 1514 1512 1510 1508 1506 1505 1504 1503 1501 1500 1499 1498 1498 1497 1497 1496 1495 1495 1494
1429 1434 1438 1441 1439 1436 1436 1435 1427 1422 1425 1427 1428 1426 1424 1424 1428 1433 1435 1434 1437 1449 1459 1461 1460 1465 1475 1483 1490 1494 1496 1499 1502 1506 1511 1515 1517 1519 1521 1522 1524 1526 1527 1528 1529 1528 1529 1529 1529 1529 1530 1530 1530 1530 1530 1530 1529 1529 1528 1527 1526 1524 1523 1521 1520 1518 1517 1515 1513 1511 1509 1507 1505 1504 1502 1501 1500 1498 1498 1497 1497 1496 1496 1495 1495 1495
1428 1436 1441 1441 1440 1438 1436 1436 1432 1426 1425 1426 1427 1427 1426 1427 1429 1431 1434 1437 1441 1447 1455 1461 1464 1469 1476 1484 1491 1495 1497 1500 1504 1508 1512 1514 1517 1519 1521 1523 1525 1527 1528 1529 1529 1529 1529 1530 1530 1531 1531 1531 1531 1532 1532 1531 1531 1530 1529 1528 1527 1525 1523 1522 1521 1520 1518 1516 1514 1512 1510 1507 1506 1504 1503 1501 1499 1498 1498 1497 1497 1496 1495 1495 1494 1494
1432 1440 1445 1444 1443 1443 1438 1438 1439 1433 1429 1430 1431 1431 1431 1433 1434 1435 1440 1448 1452 1456 1460 1463 1472 1483 1485 1486 1491 1496 1499 1502 1506 1510 1512 1514 1517 1519 1521 1524 1526 1527 1528 1529 1530 1530 1530 1531 1531 1531 1532 1532 1533 1533 1533 1533 1532 1531 1530 1529 1527 1526 1524 1523 1522 1521 1519 1517 1515 1513 1510 1508 1506 1505 1503 1502 1500 1499 1498 1497 1497 1496 1495 1495 1495 1495
1434 1440 1448 1447 1445 1448 1445 1440 1439 1438 1436 1439 1443 1441 1438 1439 1444 1447 1451 1455 1457 1464 1469 1469 1476 1489 1490 1489 1494 1498 1500 1503 1507 1511 1513 1515 1518 1520 1521 1524 1525 1527 1529 1530 1530 1530 1531 1532 1531 1532 1533 1533 1534 1534 1534 1534 1533 1532 1531 1530 1529 1527 1526 1524 1523 1522 1520 1518 1516 1513 1511 1509 1508 1506 1504 1503 1502 1500 1499 1498 1497 1496 1495 1495 1495 1495
1432 1436 1445 1445 1445 1453 1450 1440 1442 1451 1455 1455 1457 1457 1449 1446 1451 1455 1457 1459 1457 1461 1470 1470 1475 1487 1490 1491 1495 1499 1501 1505 1509 1512 1514 1516 1518 1520 1522 1524 1526 1528 1529 1530 1531 1531 1532 1532 1532 1532 1534 1534 1535 1535 1535 1534 1533 1532 1531 1531 1530 1529 1528 1526 1525 1523 1521 1519 1517 1515 1513 1511 1509 1508 1506 1505 1503 1502 1501 1500 1498 1496 1495 1495 1495 1495
1430 1432 1438 1442 1448 1457 1452 1445 1453 1464 1466 1465 1465 1462 1455 1451 1455 1458 1462 1465 1463 1464 1469 1472 1478 1488 1492 1492 1495 1499 1503 1507 1510 1513 1515 1517 1519 1520 1523 1525 1527 1529 1530 1531 1532 1532 1532 1532 1533 1533 1534 1535 1536 1536 1536 1535 1534 1533 1532 1532 1531 1530 1528 1528 1527 1524 1521 1520 1518 1517 1515 1513 1512 1510 1508 1507 1505 1505 1503 1502 1500 1498 1497 1496 1497 1497
1432 1435 1439 1441 1450 1458 1453 1453 1465 1469 1464 1466 1466 1461 1458 1457 1457 1460 1463 1466 1468 1472 1475 1479 1485 1491 1493 1496 1499 1501 1506 1509 1512 1515 1517 1518 1520 1521 1523 1526 1528 1529 1531 1531 1532 1532 1532 1532 1533 1533 1534 1535 1536 1536 1536 1536 1535 1534 1534 1533 1532 1531 1530 1530 1528 1525 1522 1521 1520 1518 1517 1515 1514 1512 1510 1509 1508 1507 1506 1504 1502 1501 1500 1499 1499 1500
1432 1439 1442 1439 1446 1458 1454 1451 1463 1469 1464 1465 1465 1461 1460 1461 1459 1461 1469 1473 1473 1476 1479 1483 1488 1493 1495 1500 1503 1504 1508 1512 1514 1518 1520 1521 1522 1523 1525 1527 1529 1529 1530 1531 1532 1532 1532 1532 1533 1534 1534 1535 1536 1536 1536 1536 1536 1536 1535 1534 1533 1532 1532 1531 1529 1526 1524 1522 1521 1520 1519 1518 1516 1514 1513 1512 1511 1510 1508 1507 1505 1504 1504 1503 1503 1503
1429 1435 1438 1436 1440 1448 1447 1448 1461 1470 1468 1466 1465 1460 1459 1461 1458 1458 1471 1481 1479 1478 1483 1487 1491 1495 1499 1501 1504 1506 1509 1511 1516 1520 1522 1523 1524 1525 1527 1528 1528 1529 1530 1531 1532 1532 1532 1533 1533 1534 1535 1536 1536 1536 1536 1537 1537 1536 1536 1535 1535 1534 1533 1532 1530 1528 1526 1524 1523 1522 1521 1520 1518 1517 1515 1514 1513 1512 1511 1510 1509 1508 1507 1507 1506 1506
1428 1429 1431 1437 1439 1436 1440 1453 1462 1465 1464 1462 1461 1459 1458 1461 1458 1456 1468 1482 1483 1482 1487 1490 1492 1496 1499 1502 1505 1507 1507 1510 1517 1523 1523 1524 1526 1526 1527 1528 1528 1529 1530 1531 1532 1532 1533 1534 1534 1535 1536 1537 1537 1537 1537 1537 1538 1537 1536 1536 1536 1536 1535 1533 1532 1530 1528 1526 1525 1524 1523 1522 1521 1519 1518 1517 1515 1514 1513 1512 1512 1511 1510 1510 1510 1509
1433 1435 1433 1436 1439 1435 1439 1449 1452 1456 1461 1460 1459 1461 1461 1462 1461 1459 1466 1479 1483 1484 1487 1490 1493 1497 1499 1502 1505 1505 1504 1509 1518 1523 1523 1525 1526 1527 1528 1528 1529 1530 1531 1532 1533 1533 1534 1535 1536 1537 1537 1538 1538 1538 1538 1538 1538 1538 1537 1537 1537 1537 1536 1535 1534 1532 1530 1529 1527 1526 1525 1524 1523 1522 1521 1520 1518 1517 1516 1515 1514 1514 1514 1513 1513 1512
1442 1445 1440 1435 1434 1434 1438 1447 1453 1461 1466 1462 1460 1463 1463 1463 1464 1464 1467 1474 1480 1483 1486 1489 1493 1497 1499 1502 1504 1505 1504 1506 1514 1520 1522 1524 1526 1527 1528 1529 1530 1531 1531 1532 1533 1534 1535 1536 1537 1538 1538 1539 1539 1539 1539 1539 1539 1538 1538 1538 1539 1538 1537 1537 1536 1534 1533 1531 1529 1529 1528 1526 1525 1524 1523 1523 1522 1520 1519 1519 1518 1518 1517 1516 1516 1515
1442 1444 1442 1438 1435 1434 1438 1450 1461 1466 1467 1463 1462 1463 1463 1464 1466 1466 1468 1472 1477 1482 1486 1490 1493 1497 1500 1502 1504 1506 1505 1506 1510 1516 1521 1524 1526 1527 1529 1530 1531 1532 1533 1533 1534 1536 1537 1538 1539 1539 1540 1540 1541 1541 1541 1541 1540 1540 1539 1540 1540 1540 1539 1539 1538 1537 1535 1534 1533 1532 1530 1529 1528 1527 1526 1525 1525 1524 1523 1522 1522 1521 1521 1520 1520 1519
1438 1435 1434 1436 1436 1432 1435 1450 1463 1468 1470 1468 1466 1465 1465 1465 1466 1468 1472 1475 1478 1482 1487 1491 1494 1497 1501 1503 1505 1507 1508 1509 1513 1517 1521 1524 1526 1528 1529 1530 1531 1533 1534 1534 1536 1537 1539 1539 1540 1541 1541 1542 1542 1543 1543 1542 1542 1541 1541 1541 1541 1542 1541 1541 1540 1539 1538 1537 1536 1534 1533 1532 1531 1530 1529 1528 1527 1526 1525 1525 1524 1524 1523 1523 1523 1522
1436 1432 1427 1433 1439 1433 1433 1451 1465 1468 1470 1471 1468 1467 1468 1467 1469 1473 1476 1478 1481 1485 1489 1492 1496 1498 1501 1503 1506 1509 1511 1513 1516 1520 1522 1525 1527 1528 1530 1531 1532 1534 1535 1536 1538 1539 1540 1541 1542 1542 1543 1543 1544 1544 1544 1543 1543 1542 1542 1542 1543 1543 1543 1542 1542 1542 1541 1539 1538 1537 1536 1535 1534 1533 1532 1532 1531 1530 1528 1528 1527 1526 1526 1525 1525 1524
1437 1435 1429 1436 1446 1440 1438 1455 1468 1468 1470 1472 1469 1469 1470 1471 1473 1476 1477 1480 1485 1488 1491 1494 1497 1499 1500 1503 1506 1510 1513 1516 1518 1521 1524 1527 1528 1530 1531 1533 1534 1535 1537 1538 1539 1540 1541 1542 1543 1543 1544 1545 1545 1545 1545 1544 1544 1544 1544 1544 1544 1545 1544 1544 1544 1543 1542 1542 1541 1540 1539 1538 1537 1536 1535 1534 1533 1532 1531 1530 1529 1529 1528 1528 1527 1527
1443 1443 1440 1446 1456 1454 1454 1467 1474 1473 1474 1474 1472 1472 1474 1475 1477 1478 1480 1483 1487 1490 1492 1495 1498 1500 1502 1504 1507 1511 1514 1517 1519 1521 1524 1527 1530 1532 1533 1534 1535 1536 1538 1539 1540 1542 1543 1543 1544 1545 1546 1546 1546 1546 1546 1545 1545 1545 1545 1546 1546 1546 1545 1545 1545 1544 1544 1543 1543 1543 1542 1540 1539 1539 1538 1537 1536 1535 1534 1533 1532 1531 1530 1530 1529 1529
1446 1446 1444 1451 1460 1463 1467 1475 1477 1475 1477 1477 1476 1477 1478 1478 1480 1482 1483 1486 1488 1491 1494 1495 1498 1501 1504 1505 1508 1512 1515 1518 1519 1522 1524 1528 1531 1534 1534 1535 1537 1538 1539 1540 1541 1543 1544 1544 1545 1546 1547 1547 1547 1547 1547 1547 1547 1547 1547 1548 1548 1548 1547 1547 1546 1546 1546 1545 1545 1544 1544 1543 1542 1541 1540 1540 1539 1538 1537 1536 1535 1534 1534 1533 1532 1532
1447 1445 1445 1451 1457 1460 1469 1479 1478 1477 1479 1479 1479 1480 1480 1481 1483 1484 1486 1488 1490 1492 1495 1496 1499 1503 1506 1508 1510 1513 1517 1519 1520 1523 1526 1529 1532 1534 1536 1536 1537 1539 1540 1541 1543 1544 1545 1546 1547 1548 1548 1548 1549 1549 1549 1549 1549 1549 1549 1549 1549 1549 1549 1549 1548 1548 1548 1548 1547 1547 1546 1545 1544 1543 1542 1542 1541 1541 1540 1539 1538 1537 1536 1536 1535 1534
1446 1446 1447 1453 1459 1463 1472 1480 1480 1479 1481 1481 1481 1482 1482 1483 1485 1486 1488 1491 1492 1494 1497 1499 1502 1505 1507 1510 1512 1514 1517 1521 1523 1524 1528 1531 1533 1534 1536 1537 1538 1539 1540 1541 1543 1545 1546 1547 1548 1549 1549 1549 1550 1550 1551 1551 1551 1551 1551 1551 1551 1551 1550 1550 1550 1550 1550 1550 1550 1549 1548 1548 1547 1546 1545 1544 1543 1543 1542 1541 1541 1540 1539 1538 1537 1537
1446 1448 1450 1457 1466 1473 1477 1481 1481 1482 1484 1484 1483 1484 1485 1486 1487 1489 1491 1493 1495 1497 1500 1502 1505 1508 1510 1512 1514 1516 1519 1522 1524 1526 1529 1532 1533 1534 1536 1537 1538 1539 1540 1542 1543 1545 1547 1548 1549 1549 1550 1551 1551 1552 1552 1552 1553 1553 1553 1553 1553 1553 1552 1552 1552 1552 1552 1552 1552 1551 1551 1551 1550 1549 1548 1547 1546 1545 1544 1544 1543 1542 1541 1541 1540 1539
1449 1451 1453 1457 1462 1467 1471 1475 1476 1476 1480 1485 1486 1486 1487 1488 1489 1491 1494 1495 1497 1500 1502 1504 1507 1510 1512 1514 1517 1518 1520 1523 1526 1528 1530 1532 1534 1535 1537 1538 1539 1540 1542 1543 1545 1546 1547 1549 1550 1550 1551 1552 1553 1553 1554 1554 1554 1555 1555 1555 1555 1555 1554 1554 1554 1554 1554 1553 1553 1553 1553 1553 1552 1552 1551 1550 1548 1547 1546 1546 1546 1545 1544 1543 1543 1542
1455 1455 1456 1457 1456 1458 1464 1471 1472 1472 1478 1485 1488 1488 1489 1491 1492 1493 1496 1498 1500 1502 1504 1506 1508 1511 1514 1517 1519 1521 1522 1524 1527 1529 1531 1533 1535 1537 1538 1540 1541 1542 1544 1545 1547 1548 1549 1550 1551 1551 1552 1553 1554 1555 1555 1556 1556 1556 1556 1556 1556 1556 1556 1556 1556 1555 1555 1555 1555 1554 1554 1554 1554 1553 1553 1553 1552 1550 1549 1548 1548 1547 1547 1546 1545 1544